HO-107 1 45119U 19071J 20037.80937452 +.00000929 00000-0 6576667 0 9990 2 45132 051.6439 279.2271 0011823 301.4585 058.5241 15.33093707000920 HO-107 1 45119U 19071J 20041.85083750 .00001121 00000-0 46101-4 0 9992 2 45119 51.6433 259.7111 0011921 316.4711 43.5329 15.33107110 1545 HO-107 1 45119U 19071J 20044.26266438 .00000780 00000-0 35636-4 0 9997 2 45119 51.6431 248.0643 0011989 325.4570 34.5632 15.33113022 1918 HO-107 1 45119U 19071J 20051.82399927 .00001934 00000-0 70996-4 0 9997 2 45119 51.6418 211.5487 0012280 353.2691 6.8123 15.33142744 3071 HO-107 1 45119U 19071J 20058.60299922 .00001408 00000-0 54836-4 0 9995 2 45119 051.6436 178.8112 0012506 017.4042 342.7366 15.33165786004119 HO-107 1 45119U 19071J 20064.73007907 .00001100 00000-0 45369-4 0 9996 2 45119 51.6440 149.2209 0012703 38.7677 321.4214 15.33186283 5057 HO-107 1 45119U 19071J 20072.48659050 .00000908 00000-0 39481-4 0 9992 2 45119 51.6435 111.7595 0012879 65.4344 294.7978 15.33209659 6249 HO-107 1 45119U 19071J 20079.13493134 .00001695 00000-0 63528-4 0 9993 2 45119 51.6437 79.6484 0012952 88.2702 271.9763 15.33232489 7262 HO-107 1 45119U 19071J 20086.43492536 .00001998 00000-0 72719-4 0 9997 2 45119 051.6436 044.3889 0012943 113.4321 246.8023 15.33263894008385 HO-107 1 45119U 19071J 20093.21334694 .00001155 00000-0 46909-4 0 9998 2 45119 51.6442 11.6487 0012812 136.7999 223.3990 15.33295521 9428 HO-107 1 45119U 19071J 20100.51303628 .00001694 00000-0 63284-4 0 9996 2 45119 051.6446 336.3886 0012607 162.6360 197.5055 15.33326970010546 HO-107 1 45119U 19071J 20107.55188342 .00002434 00000-0 85795-4 0 9995 2 45119 51.6426 302.3859 0012384 187.9294 172.1494 15.33356368 11625 HO-107 1 45119U 19071J 20114.59058203 .00001736 00000-0 64459-4 0 9997 2 45119 051.6424 268.3815 0012108 213.6878 146.3335 15.33389012012704 HO-107 1 45119U 19071J 20121.17293789 .00001695 00000-0 63149-4 0 9998 2 45119 051.6428 236.5816 0011933 238.6251 121.3564 15.33421809013713 HO-107 1 45119U 19071J 20128.34171497 +.00001482 +00000-0 +56628-4 0 9993 2 45119 051.6435 201.9474 0011879 265.7230 094.2394 15.33445232014811 HO-107 1 45119U 19071J 20135.11937556 .00000709 00000-0 33111-4 0 9995 2 45119 51.6429 169.2008 0011950 291.3807 68.5900 15.33461768 15852 HO-107 1 45119U 19071J 20142.48349013 +.00000897 +00000-0 +38828-4 0 9996 2 45119 051.6428 133.6199 0012111 318.9380 041.0689 15.33481206016983 HO-107 1 45119U 19071J 20149.13065700 .00001374 00000-0 53262-4 0 9993 2 45119 51.6435 101.5020 0012292 343.6364 16.4220 15.33503392 18008 HO-107 1 45119U 19071J 20156.29906029 +.00002098 +00000-0 +75152-4 0 9992 2 45119 051.6435 066.8651 0012502 009.6521 350.4699 15.33529357019101 HO-107 1 45119U 19071J 20163.20667067 +.00001145 +00000-0 +46270-4 0 9998 2 45119 051.6452 033.4869 0012676 034.2018 325.9779 15.33553856020163 HO-107 1 45119U 19071J 20170.50516902 +.00000926 +00000-0 +39619-4 0 9995 2 45119 051.6448 358.2187 0012817 059.7159 300.5090 15.33575846021286 HO-107 1 45119U 19071J 20177.02160291 .00001032 00000-0 42784-4 0 9991 2 45119 51.6446 326.7285 0012889 82.1904 278.0541 15.33592454 22285 HO-107 1 45119U 19071J 20184.58056691 .00000944 00000-0 40095-4 0 9992 2 45119 51.6443 290.1991 0012801 108.1791 252.0586 15.33612415 23447 HO-107 1 45119U 19071J 20191.48780667 +.00000539 +00000-0 +27863-4 0 9994 2 45119 051.6435 256.8185 0012631 132.1829 228.0227 15.33629152024501 HO-107 1 45119U 19071J 20198.59046396 .00000681 00000-0 32131-4 0 9999 2 45119 051.6423 222.4923 0012413 157.0908 203.0630 15.33643637025594 HO-107 1 45119U 19071J 20205.23691989 .00001011 00000-0 42068-4 0 9991 2 45119 051.6426 190.3696 0012130 180.6330 179.4639 15.33659399026615 HO-107 1 45119U 19071J 21189.36840651 .00003767 00000-0 11671-3 0 9994 2 45119 51.6422 295.4655 0011326 7.9953 352.1208 15.35951488 80383 HO-107 1 45119U 19071J 21196.26509486 .00002154 00000-0 71373-4 0 9994 2 45119 51.6412 262.0168 0011582 32.3682 327.8009 15.35983587 81447 HO-107 1 45119U 19071J 21203.48694512 .00003857 00000-0 11895-3 0 9995 2 45119 51.6404 226.9881 0011777 57.4329 302.7789 15.36023271 82557 HO-107 1 45119U 19071J 21210.38325798 .00003617 00000-0 11206-3 0 9999 2 45119 51.6402 193.5353 0011880 81.3142 278.9186 15.36077434 83615 HO-107 1 45119U 19071J 21217.53954166 .00002407 00000-0 78125-4 0 9990 2 45119 51.6408 158.8190 0011851 106.1306 254.0983 15.36132760 84716 HO-107 1 45119U 19071J 21217.53954166 .00002407 00000-0 78125-4 0 9990 2 45119 51.6408 158.8190 0011851 106.1306 254.0983 15.36132760 84716 HO-107 1 45119U 19071J 21224.56548068 .00001997 00000-0 66598-4 0 9995 2 45119 51.6417 124.7332 0011738 130.7858 229.4145 15.36178621 85796 HO-107 1 45119U 19071J 21231.59122498 .00002423 00000-0 78339-4 0 9992 2 45119 51.6419 90.6453 0011549 155.6601 204.4930 15.36221492 86875 HO-107 1 45119U 19071J 21238.55170058 .00004262 00000-0 12927-3 0 9993 2 45119 51.6419 56.8711 0011236 180.7713 179.3255 15.36275018 87944 HO-107 1 45119U 19071J 21245.57690433 .00005427 00000-0 16117-3 0 9996 2 45119 51.6427 22.7806 0010892 207.1911 152.8503 15.36359344 89029 HO-107 1 45119U 19071J 21253.25219333 .00005344 00000-0 15848-3 0 9994 2 45119 51.6430 345.5319 0010609 236.5416 123.4553 15.36440166 90204 HO-107 1 45119U 19071J 21266.45539467 .00006318 00000-0 18466-3 0 9994 2 45119 51.6404 281.4431 0010456 287.2227 72.7611 15.36561696 92239 HO-107 1 45119U 19071J 21266.45539467 .00006318 00000-0 18466-3 0 9994 2 45119 51.6404 281.4431 0010456 287.2227 72.7611 15.36561696 92239 HO-107 1 45119U 19071J 21280.43758916 .00007585 00000-0 21800-3 0 9993 2 45119 51.6410 213.5548 0010503 339.3692 20.6866 15.36777453 94381 HO-107 1 45119U 19071J 21287.13531434 .00006728 00000-0 19392-3 0 9992 2 45119 51.6398 181.0281 0010631 3.8113 356.2950 15.36889997 95416 HO-107 1 45119U 19071J 21294.02764834 .00004885 00000-0 14337-3 0 9996 2 45119 51.6396 147.5500 0010827 28.2237 331.9331 15.36980939 96478 HO-107 1 45119U 19071J 21301.43974618 .00008477 00000-0 24000-3 0 9992 2 45119 51.6396 111.5418 0011005 53.5484 306.6513 15.37077750 97618 HO-107 1 45119U 19071J 21308.65613769 .00052511 00000-0 14126-2 0 9995 2 45119 51.6406 76.4761 0011086 77.2287 282.9935 15.37299470 98725 HO-107 1 45119U 19071J 21315.54670772 .00005381 00000-0 15483-3 0 9999 2 45119 51.6417 42.9880 0011103 99.7947 260.4290 15.37380200 99783 HO-107 1 45119U 19071J 21322.43688024 .00004285 00000-0 12521-3 0 9996 2 45119 51.6422 9.4974 0010976 122.9705 237.2335 15.37453374100844 HO-107 1 45119U 19071J 21329.32672707 .00004078 00000-0 11941-3 0 9997 2 45119 51.6418 336.0035 0010784 146.6051 213.5615 15.37524969101905 HO-107 1 45119U 19071J 21336.28118487 .00008030 00000-0 22397-3 0 9999 2 45119 51.6409 302.1905 0010597 170.9090 189.2087 15.37630548102971